Flag for Switzerland Weather past 2 weeks in Meyrin, Geneva, Switzerland

Now
68 °F

Partly sunny.


Feels Like: 68 °F
Forecast: 42 / 62 °F
Wind: 3 mph from Northeast

Location: Geneva Cointrin Airport


UV Index: 0 (Low)

Visibility: N/A


Pressure: 29.89 "Hg

Humidity: 43%

Dew point: 45 °F

Location of MeyrinLocation

Historic Weather in Meyrin

°F

Meyrin temperature yesterday

Maximum temperature yesterday: 68 °F (at 2:50 PM)
Minimum temperature yesterday: 50 °F (at 3:50 AM)
Average temperature yesterday: 59 °F

Past Weeks' High & Low Weather Summary

 TemperatureHumidityPressure
High72 °F (Apr 11, 4:50 PM)100% (Apr 20, 2:50 AM)30.21 "Hg (Apr 20, 2:50 AM)
Low32 °F (Apr 20, 6:50 AM)21% (Apr 15, 3:50 PM)29.62 "Hg (Apr 20, 4:20 PM)
Average53 °F65%29.99 "Hg
* Reported Apr 9 6:20 PM — Apr 24 6:50 PM, Meyrin, Weather by CustomWeather, © 2014

Note: Actual official high and low records may vary slightly from our data, if they occured in-between our weather recording intervals... More about our weather records

Advertising

Historic Weather Conditions — Data for Previous 24 hours

 ConditionsComfort  
Time TempWeatherWind HumidityBarometerVisibility
6:50 PM
Apr 24
70 °FPartly sunny.5 mph38%29.89 "HgN/A
6:20 PM70 °FPartly sunny.6 mph38%29.89 "HgN/A
5:50 PM72 °FPartly sunny.7 mph29%29.92 "HgN/A
5:20 PM72 °FPartly sunny.6 mph33%29.92 "HgN/A
4:50 PM70 °FPartly sunny.6 mph35%29.92 "HgN/A
4:20 PM72 °FPartly sunny.7 mph33%29.95 "HgN/A
3:50 PM70 °FPartly sunny.6 mph35%29.95 "HgN/A
3:20 PM70 °FPartly sunny.7 mph38%29.98 "HgN/A
2:50 PM68 °FPartly sunny.6 mph43%29.98 "HgN/A
2:20 PM68 °FPartly sunny.7 mph46%29.98 "HgN/A
1:50 PM66 °FPartly sunny.5 mph49%30.01 "HgN/A
1:20 PM66 °FPartly sunny.3 mph52%30.01 "HgN/A
12:50 PM64 °FPartly sunny.5 mph56%30.04 "HgN/A
12:20 PM63 °FScattered clouds.6 mph59%30.04 "HgN/A
11:50 AM63 °FScattered clouds.7 mph59%30.04 "HgN/A
11:20 AM63 °FPassing clouds.2 mph59%30.07 "HgN/A
10:50 AM61 °FPassing clouds.1 mph59%30.07 "HgN/A
10:20 AM61 °FPassing clouds.2 mph59%30.07 "HgN/A
9:50 AM59 °FPassing clouds.1 mph68%30.09 "HgN/A
9:20 AM57 °FPassing clouds.No wind72%30.09 "HgN/A
8:50 AM55 °FPassing clouds.No wind77%30.09 "HgN/A
8:20 AM54 °FPassing clouds.No wind82%30.09 "HgN/A
7:50 AM50 °FPassing clouds.2 mph88%30.09 "HgN/A
7:20 AM45 °FPassing clouds.No wind93%30.09 "HgN/A
6:50 AM45 °FPassing clouds.2 mph93%30.09 "HgN/A
6:20 AM45 °FPassing clouds.1 mph100%30.09 "HgN/A
5:50 AM45 °FPassing clouds.No wind100%30.09 "HgN/A
5:20 AM45 °FPassing clouds.1 mph100%30.09 "HgN/A
4:50 AM46 °FPassing clouds.No wind93%30.09 "HgN/A
4:20 AM46 °FPassing clouds.No wind93%30.09 "HgN/A
3:50 AM46 °FPassing clouds.1 mph93%30.09 "HgN/A
2:50 AM46 °FPassing clouds.No wind100%30.09 "HgN/A
2:20 AM48 °FClear.No wind94%30.09 "Hg10 mi
1:50 AM50 °FClear.No wind88%30.09 "Hg10 mi
1:20 AM52 °FClear.3 mph82%30.09 "Hg10 mi
12:50 AM54 °FPassing clouds.5 mph77%30.09 "HgN/A
12:20 AM54 °FPassing clouds.5 mph77%30.09 "HgN/A
11:50 PM
Apr 23
55 °FPassing clouds.6 mph77%30.09 "HgN/A
11:20 PM54 °FPassing clouds.6 mph82%30.09 "HgN/A
10:50 PM54 °FPassing clouds.5 mph77%30.09 "HgN/A
10:20 PM55 °FPassing clouds.5 mph72%30.07 "HgN/A
9:50 PM59 °FPassing clouds.5 mph63%30.07 "HgN/A
9:20 PM59 °FPassing clouds.5 mph59%30.07 "HgN/A
8:50 PM63 °FScattered clouds.6 mph52%30.07 "HgN/A
8:20 PM63 °FScattered clouds.2 mph52%30.04 "HgN/A
7:50 PM66 °FScattered clouds.3 mph46%30.04 "HgN/A
7:20 PM68 °FScattered clouds.3 mph43%30.04 "HgN/A
Weather by CustomWeather, © 2014

See weather overview